Weather Service Report


557 
ASUS41 KGYX 271910
RWRGYX
WEATHER ROUNDUP FOR MAINE AND NEW HAMPSHIRE
NATIONAL WEATHER SERVICE GRAY ME
300 PM EDT SAT MAY 27 2017

MEZ002-005-006-010-012-015-018-020-021-024-026-027-029-272000-
MAINE
  
CITY           SKY/WX    TMP DP  RH WIND       PRES   REMARKS
PORTLAND       MOSUNNY   62  49  62 SE10      29.86S                  
SANFORD        CLOUDY    61  50  67 SE8       29.87R                  
BAR HARBOR     CLOUDY    54  44  69 E5        29.87S                  
WISCASSET      CLOUDY    65  48  54 E6        29.86S                  
ROCKLAND       CLOUDY    58  47  66 NE8       29.87S                  
FRYEBURG       CLOUDY    70  46  42 CALM      29.84S                  
LEWISTONAUBURN MOSUNNY   68  49  50 NE13      29.84S                  
AUGUSTA        SUNNY     66  47  50 NW14      29.85S                  
WATERVILLE     PTSUNNY   63  48  58 CALM      29.82F                  
BANGOR         PTSUNNY   60  46  59 NE8       29.86S                  
GREENVILLE       N/A     60  47  61 VRB6      29.85R                  
MILLINOCKET    PTSUNNY   62  45  53 N6        29.85S                  
HOULTON        CLOUDY    62  46  55 NE7       29.82F                  
PRESQUE ISLE   CLOUDY    63  45  51 SE6       29.84F                  
FRENCHVILLE    MOSUNNY   64  38  38 CALM      29.83S                  
CARIBOU        CLOUDY    66  44  45 SE9       29.83S                  
$$

NHZ002-005-008-009-011-012-014-272000-
NEW HAMPSHIRE
  
CITY           SKY/WX    TMP DP  RH WIND       PRES   REMARKS
PORTSMOUTH     PTSUNNY   61  49  63 E10       29.86R                  
ROCHESTER      CLOUDY    65  50  58 S9        29.85R                  
NASHUA         CLOUDY    69  50  50 VRB3      29.86S                  
MANCHESTER     PTSUNNY   68  46  45 CALM      29.84S                  
CONCORD        CLOUDY    70  47  43 CALM      29.85R                  
LACONIA        MOSUNNY   69  48  47 VRB6      29.86R                  
PLYMOUTH       CLOUDY    69  47  45 NW3       29.84S                  
BERLIN         MOSUNNY   70  42  36 VRB5      29.84F                  
WHITEFIELD     CLOUDY    65  43  44 CALM      29.87S                  
JAFFREY        CLOUDY    68  48  48 N3        29.87S                  
KEENE          CLOUDY    68  51  54 W5        29.87S                  
LEBANON        CLOUDY    69  49  48 W3        29.86S                  
MT WASHINGTON  PTSUNNY   43  39  87 N8          N/A                   
$$

VTZ005-007-008-272000-
VERMONT
  
CITY           SKY/WX    TMP DP  RH WIND       PRES   REMARKS
ST JOHNSBURY     N/A     68  46  45 MISG      29.85S                  
MONTPELIER     CLOUDY    64  49  57 NW8       29.92S                  
BURLINGTON     MOSUNNY   70  45  40 VRB5      29.87F                  
$$

MAZ007-012-024-CTZ003-RIZ002-NYZ038-NYZ072-272000-
SOUTHERN NEW ENGLAND AND NY
  
CITY           SKY/WX    TMP DP  RH WIND       PRES   REMARKS
BOSTON         MOSUNNY   59  49  69 E14       29.88F                  
WORCESTER      PTSUNNY   65  44  46 CALM      29.88R                  
NANTUCKET      CLOUDY    57  48  72 N9        29.90R                  
PROVIDENCE     PTSUNNY   68  52  56 S7        29.87S                  
HARTFORD       PTSUNNY   67  48  50 CALM      29.88S                  
ALBANY         CLOUDY    69  50  50 CALM      29.88F                  
NEW YORK CITY  CLOUDY    71  53  52 NW3       29.86S                  
$$

ANZ081-ANZ082-ANZ150-NHZ014-MEZ023>029-272000-
COASTAL MARINE OBSERVATIONS
  
STATION/POSITION TIME  TEMP    WIND        PRES    WAVE
                       AIR SEA DIR/SP/G            HT/PER
                 (UTC) (F)     (DEG/KT/KT) (MB)    (FT/S)
MOUNT DESERT ROC 1900   46                 1011.6R
MATINICUS ROCK   1800   47     170/  4/  4 1011.1F
ISLE OF SHOALS   1800   52     140/ 10/ 11 1011.4R
JEFFREYS LEDGE   1806      51                N/A     3/10
CASHES LEDGE BUO 1850   49 48              1011.8R   4/ 9
GEORGES BANK BUO 1750   49 47              1009.5    7/10
$$

.............KEY..............
   WCI - WIND CHILL
   TC  - TEMPERATURE IN CELSIUS
   VSB - VISIBILITY IN MILES
   HX  - HEAT INDEX
   FAIR- INDICATES FEW OR NO CLOUDS BELOW 12,000 FT, WITH NO 
         SIGNIFICANT WEATHER AND/OR OBSTRUCTIONS TO VISIBILITY.


  

Return to Home page


Western Regional Climate Center, wrcc@dri.edu